Regional Weather Roundup
Issued by NWS Memphis, TN

Home | Current Version | Previous Version | Text Only | Print | Product List | Glossary On
Versions: 1 2 3 4 5 6 7 8 9 10 11 12 13 14 15 16 17 18 19 20 21 22 23 24 25 26 27 28 29 30 31 32 33 34 35 36 37 38 39 40 41 42 43 44 45 46 47 48 49 50
000
ASUS44 KMEG 281210
RWRMEG
MEMPHIS CWA HOURLY WEATHER ROUNDUP
NATIONAL WEATHER SERVICE MEMPHIS TN
700 AM CDT SAT MAR 28 2015

...WEST TENNESSEE...

CITY           SKY/WX    TMP DP  RH WIND       PRES   REMARKS
MEMPHIS INTL   CLOUDY    37  21  52 SE5       30.23R WCI  33
6HR MIN TEMP:  36; 6HR MAX TEMP:  40;

NWS MEMPHIS      N/A     35 N/A N/A MISG        N/A
JACKSON        CLEAR     25  22  88 CALM      30.23R
6HR MIN TEMP:  25; 6HR MAX TEMP:  34;

LEXINGTON      CLEAR     23  19  86 CALM      30.21R
SAVANNAH       PTCLDY    27  25  93 CALM      30.22R
DYERSBURG      PTCLDY    30  14  51 CALM      30.25R
6HR MIN TEMP:  30; 6HR MAX TEMP:  36;

UNION CITY     CLEAR     27  25  93 CALM      30.23R
PARIS          CLEAR     21  18  86 NE3       30.22R


...EASTERN ARKANSAS...

CITY           SKY/WX    TMP DP  RH WIND       PRES   REMARKS
JONESBORO      CLOUDY    37  30  75 S5        30.25R WCI  33
6HR MIN TEMP:  33; 6HR MAX TEMP:  37;

WEST MEMPHIS   CLOUDY    37  25  61 SE6       30.23R WCI  32
6HR MIN TEMP:  34; 6HR MAX TEMP:  39;

BATESVILLE     CLOUDY    39  28  65 E7        30.21R WCI  34
6HR MIN TEMP:  37; 6HR MAX TEMP:  41;

NEWPORT        CLOUDY    39  30  70 SE6       30.26R WCI  35
6HR MIN TEMP:  38; 6HR MAX TEMP:  40;

BLYTHEVILLE    CLOUDY    36  27  69 CALM      30.25R
6HR MIN TEMP:  33; 6HR MAX TEMP:  37;

SEARCY         CLOUDY    40  33  76 E3        30.24R
6HR MIN TEMP:  39; 6HR MAX TEMP:  43;

STUTTGART      CLOUDY    41  30  65 SE9       30.21R
6HR MIN TEMP:  41; 6HR MAX TEMP:  45;

PINE BLUFF     CLOUDY    40  38  93 E7        30.20R
6HR MIN TEMP:  40; 6HR MAX TEMP:  44;

MONTICELLO     CLOUDY    40  36  86 CALM      30.19R
6HR MIN TEMP:  36; 6HR MAX TEMP:  44;



...NORTH MISSISSIPPI...

CITY           SKY/WX    TMP DP  RH WIND       PRES   REMARKS
TUPELO         CLEAR     31  26  82 NE6       30.23R WCI  25
6HR MIN TEMP:  30; 6HR MAX TEMP:  36;

OXFORD         PTCLDY    30  28  93 CALM      30.24R
OLIVE BRANCH   MOCLDY    34  30  86 CALM      30.23R
TUNICA         CLOUDY    37  28  70 E6        30.24S WCI  33
CLARKSDALE     CLOUDY    37  28  70 E7        30.24R WCI  32
CORINTH        CLEAR     30  27  86 CALM      30.22R
GREENWOOD      MOCLDY    36  30  79 CALM      30.24R
6HR MIN TEMP:  36; 6HR MAX TEMP:  43;

COLUMBUS       CLEAR     35  28  74 N3        30.23R
6HR MIN TEMP:  35; 6HR MAX TEMP:  39;

STARKVILLE     FAIR      32  32 100 CALM      30.22S FOG
GOLDEN TRIANGL PTCLDY    36  28  75 CALM      30.22R


...SOUTHEAST MISSOURI...

CITY           SKY/WX    TMP DP  RH WIND       PRES   REMARKS
WEST PLAINS    LGT SNOW  34  25  69 SE6       30.20R WCI  29
6HR MIN TEMP:  34; 6HR MAX TEMP:  37; 6HR PCP: TRACE;

POPLAR BLUFF   CLOUDY    32  28  85 CALM      30.24R
6HR MIN TEMP:  31; 6HR MAX TEMP:  36;



...NORTHWEST ALABAMA...

CITY           SKY/WX    TMP DP  RH WIND       PRES   REMARKS
MUSCLE SHOALS  CLEAR     32  21  64 N6        30.22R WCI  26
6HR MIN TEMP:  32; 6HR MAX TEMP:  36;



...MIDDLE TENNESSEE...

CITY           SKY/WX    TMP DP  RH WIND       PRES   REMARKS
NASHVILLE      PTCLDY    27  18  69 N9        30.21R WCI  18
6HR MIN TEMP:  27; 6HR MAX TEMP:  34;

CLARKSVILLE    CLEAR     26  18  71 CALM      30.22R
6HR MIN TEMP:  24; 6HR MAX TEMP:  31;

COLUMBIA       CLEAR     27  27 100 CALM      30.18R


...WESTERN KENTUCKY...

CITY           SKY/WX    TMP DP  RH WIND       PRES   REMARKS
PADUCAH        CLEAR     24  21  88 CALM      30.24R
6HR MIN TEMP:  24; 6HR MAX TEMP:  31;

FORT CAMPBELL  CLEAR     26  19  76 N1        30.22R
6HR MIN TEMP:  26; 6HR MAX TEMP:  32;



...CENTRAL ARKANSAS...

CITY           SKY/WX    TMP DP  RH WIND       PRES   REMARKS
LITTLE ROCK    CLOUDY    43  35  73 E5        30.21R
6HR MIN TEMP:  42; 6HR MAX TEMP:  46;



SKY/WX REPORTED AS FAIR MEANS FEW OR NO CLOUDS BELOW
12 THOUSAND FEET.



USA.gov is the U.S. government's official web portal to all federal, state and local government web resources and services.